TimeCST,TemperatureF,Dew PointF,Humidity,Sea Level PressureIn,VisibilityMPH,Wind Direction,Wind SpeedMPH,Gust SpeedMPH,PrecipitationIn,Events,Conditions,WindDirDegrees,DateUTC
12:56 AM,15.1,10.0,80,30.04,10.0,North,8.1,-,N/A,,Clear,350,2012-12-23 06:56:00
1:07 AM,15.8,10.4,79,29.99,10.0,North,8.1,-,N/A,,Scattered Clouds,360,2012-12-23 07:07:00
1:17 AM,15.8,10.4,79,30.00,10.0,North,6.9,-,N/A,,Mostly Cloudy,10,2012-12-23 07:17:00
1:56 AM,17.1,12.9,84,30.05,10.0,North,9.2,-,N/A,,Overcast,10,2012-12-23 07:56:00
2:56 AM,18.0,14.0,84,30.06,10.0,North,6.9,-,N/A,,Overcast,350,2012-12-23 08:56:00
3:27 AM,17.6,12.2,79,30.02,10.0,North,6.9,-,N/A,,Overcast,360,2012-12-23 09:27:00
3:56 AM,18.0,12.9,81,30.06,10.0,North,8.1,-,N/A,,Overcast,360,2012-12-23 09:56:00
4:56 AM,17.1,12.0,81,30.09,10.0,NNE,10.4,-,N/A,,Overcast,30,2012-12-23 10:56:00
5:56 AM,16.0,10.0,77,30.12,10.0,North,12.7,-,N/A,,Overcast,10,2012-12-23 11:56:00
6:08 AM,15.8,8.6,73,30.06,10.0,North,10.4,-,N/A,,Overcast,10,2012-12-23 12:08:00
6:56 AM,16.0,9.0,74,30.13,10.0,North,5.8,-,N/A,,Overcast,10,2012-12-23 12:56:00
7:56 AM,16.0,9.0,74,30.13,10.0,NNE,8.1,-,N/A,,Overcast,20,2012-12-23 13:56:00
8:56 AM,17.1,10.0,74,30.13,10.0,NNE,6.9,-,N/A,,Overcast,30,2012-12-23 14:56:00
9:56 AM,18.0,10.9,74,30.14,10.0,NNE,5.8,-,N/A,,Overcast,20,2012-12-23 15:56:00
10:56 AM,18.0,10.9,74,30.15,10.0,North,4.6,-,N/A,,Overcast,350,2012-12-23 16:56:00
11:56 AM,19.0,10.9,71,30.13,10.0,North,4.6,-,N/A,,Overcast,350,2012-12-23 17:56:00
12:28 PM,19.4,10.4,68,30.06,10.0,North,6.9,-,N/A,,Scattered Clouds,10,2012-12-23 18:28:00
12:56 PM,19.0,10.0,68,30.10,10.0,North,6.9,-,N/A,,Clear,10,2012-12-23 18:56:00
1:56 PM,19.9,10.0,65,30.09,10.0,North,4.6,-,N/A,,Clear,350,2012-12-23 19:56:00
2:56 PM,19.9,10.0,65,30.09,10.0,Calm,Calm,-,N/A,,Scattered Clouds,0,2012-12-23 20:56:00
3:56 PM,19.9,10.0,65,30.11,10.0,Calm,Calm,-,N/A,,Clear,0,2012-12-23 21:56:00
4:56 PM,18.0,9.0,68,30.11,10.0,Calm,Calm,-,N/A,,Clear,0,2012-12-23 22:56:00
5:56 PM,17.1,9.0,71,30.10,10.0,Calm,Calm,-,N/A,,Clear,0,2012-12-23 23:56:00
6:56 PM,17.1,9.0,71,30.11,10.0,NW,3.5,-,N/A,,Clear,320,2012-12-24 00:56:00
7:56 PM,16.0,8.1,71,30.09,10.0,Calm,Calm,-,N/A,,Clear,0,2012-12-24 01:56:00
8:56 PM,15.1,8.1,74,30.08,10.0,Calm,Calm,-,N/A,,Clear,0,2012-12-24 02:56:00
9:56 PM,12.0,7.0,80,30.06,10.0,ENE,3.5,-,N/A,,Clear,60,2012-12-24 03:56:00
10:56 PM,12.9,8.1,81,30.06,10.0,Calm,Calm,-,N/A,,Clear,0,2012-12-24 04:56:00
11:56 PM,12.0,8.1,84,30.05,10.0,Calm,Calm,-,N/A,,Clear,0,2012-12-24 05:56:00